Regional Weather Roundup
Issued by NWS

Home | Current Version | Previous Version | Text Only | Print | Product List | Glossary Off
Versions: 1 2 3 4 5 6 7 8 9 10 11 12 13 14 15 16 17 18 19 20 21 22 23 24 25 26 27 28 29 30 31 32 33 34 35 36 37 38 39 40 41 42 43 44 45 46 47 48 49 50

000
ASUS43 KFSD 260502
RWRSD

WEATHER ROUNDUP FOR SOUTH DAKOTA
NATIONAL WEATHER SERVICE SIOUX FALLS SD
1200 AM CDT TUE SEP 26 2017

NOTE: "FAIR" INDICATES FEW OR NO CLOUDS BELOW 12,000 FEET WITH NO
SIGNIFICANT WEATHER AND/OR OBSTRUCTIONS TO VISIBILITY.


SDZ001>005-009-010-012>017-260600-
NORTHWEST AND NORTH CENTRAL SOUTH DAKOTA

CITY           SKY/WX    TMP DP  RH WIND       PRES   REMARKS
FAITH            N/A     44  43  96 SE5       30.11S
MOBRIDGE       CLOUDY    49  44  83 E6        30.09S
$$

SDZ012>016-024>037-041>051-057-063-072>074-260600-
SOUTHWEST AND SOUTH CENTRAL SOUTH DAKOTA

CITY           SKY/WX    TMP DP  RH WIND       PRES   REMARKS
RAPID CTY ARPT NOT AVBL
PIERRE         CLOUDY    49  45  86 NE8       30.10F
CUSTER         CLOUDY    40  37  89 S3        30.11S
ELLSWORTH AFB  CLOUDY    48  44  88 SE7       30.10F
PHILIP         PTCLDY    43  43 100 E6        30.10F
PINE RIDGE     PTCLDY    40  39  97 CALM      30.13R
SPEARFISH      MOCLDY    43  43 100 S5        30.10S FOG
WINNER         CLOUDY    50  48  93 NW7       30.11R
$$

SDZ004>011-016>023-039-040-260600-
NORTHEAST SOUTH DAKOTA

CITY           SKY/WX    TMP DP  RH WIND       PRES   REMARKS
ABERDEEN       RAIN      48  47  96 N5        30.09F
WATERTOWN      RAIN      48  48 100 N10       30.03F FOG
BROOKINGS      LGT RAIN  49  49 100 N9        30.02F FOG
SISSETON         N/A     50  49  96 NW13      30.04F
$$

SDZ017-020-022-023-036>040-048>070-260600-
SOUTHEAST SOUTH DAKOTA

CITY           SKY/WX    TMP DP  RH WIND       PRES   REMARKS
SIOUX FALLS    CLOUDY    53  52  96 NW10      30.01S
HURON          RAIN      49  48  97 N9        30.06F
CHAMBERLAIN    RAIN      50  50 100 N7        30.08F
MITCHELL       LGT RAIN  50  49  96 N9        30.07S
YANKTON        LGT RAIN  52  51  97 NW14      30.02F FOG
$$

ABBREVIATIONS USED IN REMARKS
   TC - TEMPERATURE IN CELSIUS
  WCI - WIND CHILL INDEX
   HX - HEAT INDEX
  VSB - VISIBILITY





USA.gov is the U.S. government's official web portal to all federal, state and local government web resources and services.